Mont Saint Michel — FNMT — position and weather

sailwx.info

Track history (hours):
 
Tides and Currents Weather Stations Pressure Air Temp Water Temp Dewpoint Dewpoint Depression Visibility Wind Speed Wind Dir Waves Ship Positions

Mont Saint Michel

Last reported at 2017-Feb-19 13:33 UTC. Time now 2017-Feb-19 14:26 UTC.
Position N 49°20' W 000°14'.

Length 173 m; beam 29 m.

Type: Ship. MMSI: 227023100.

Date/timePositionNaut miles runAvg speedWind from/ knotsBaromVisibWave heightAir tempDewpointWater temp
2017-Feb-19 13:33N 49°20' W 000°14'2120.7
2017-Feb-19 12:33N 49°40' W 000°24'2121.1
2017-Feb-19 11:33N 49°60' W 000°33'2221.0
2017-Feb-19 10:30N 50°22' W 000°43'1920.3
2017-Feb-19 09:33N 50°39' W 000°55'1212.1
2017-Feb-19 08:33N 50°49' W 001°06'0 0.0
2017-Feb-19 07:33N 50°49' W 001°06'1 0.6
2017-Feb-19 06:34N 50°48' W 001°07'1313.2
2017-Feb-19 05:33N 50°37' W 000°57'1312.5
2017-Feb-19 04:33N 50°25' W 000°48'1211.7
2017-Feb-19 03:33N 50°14' W 000°43'1211.7
2017-Feb-19 02:34N 50°03' W 000°38'1111.3
2017-Feb-19 01:33N 49°52' W 000°33'1111.3
2017-Feb-19 00:34N 49°42' W 000°27'1111.4
2017-Feb-18 23:33N 49°31' W 000°21'1111.3
2017-Feb-18 22:34N 49°20' W 000°15'3 3.1
2017-Feb-18 21:33N 49°17' W 000°15'0 0.0
2017-Feb-18 20:33N 49°17' W 000°15'1111.5
2017-Feb-18 19:34N 49°29' W 000°19'2019.6
2017-Feb-18 18:33N 49°46' W 000°32'1818.5
2017-Feb-18 17:33N 50°03' W 000°44'1818.1
2017-Feb-18 16:33N 50°21' W 000°49'1818.5
2017-Feb-18 15:34N 50°38' W 000°58'1111.4
2017-Feb-18 14:33N 50°49' W 001°06'0 0.0
2017-Feb-18 13:33N 50°49' W 001°06'4 3.6
2017-Feb-18 12:34N 50°45' W 001°05'1918.6
2017-Feb-18 11:33N 50°29' W 000°51'2120.6
2017-Feb-18 10:33N 50°09' W 000°40'2121.0
2017-Feb-18 09:33N 49°50' W 000°29'2020.4
2017-Feb-18 08:33N 49°30' W 000°21'1313.3
2017-Feb-18 07:33N 49°17' W 000°15'0 0.0
2017-Feb-18 06:33N 49°17' W 000°15'0 0.0
2017-Feb-18 05:33N 49°17' W 000°15'1313.3
2017-Feb-18 04:33N 49°30' W 000°20'1313.5
2017-Feb-18 03:34N 49°43' W 000°28'1111.3
2017-Feb-18 02:34N 49°53' W 000°35'1413.6
2017-Feb-18 01:33N 50°06' W 000°43'1515.4
2017-Feb-18 00:33N 50°20' W 000°50'1515.4
2017-Feb-17 23:33N 50°35' W 000°59'1212.3
2017-Feb-17 22:33N 50°46' W 001°05'3 2.6
2017-Feb-17 21:33N 50°49' W 001°06'0 0.0
2017-Feb-17 20:33N 50°49' W 001°06'0 0.0
2017-Feb-17 19:33N 50°49' W 001°06'2 2.1
2017-Feb-17 18:33N 50°47' W 001°06'1717.3
2017-Feb-17 17:33N 50°31' W 000°54'1817.6
2017-Feb-17 16:33N 50°15' W 000°44'1817.8
2017-Feb-17 15:33N 49°58' W 000°35'1717.4
2017-Feb-17 14:33N 49°41' W 000°27'1716.8
2017-Feb-17 13:34N 49°25' W 000°18'8 8.3
2017-Feb-17 12:34N 49°17' W 000°15'0 0.0
2017-Feb-17 11:33N 49°17' W 000°15'0 0.0
2017-Feb-17 10:33N 49°17' W 000°15'0 0.0
2017-Feb-17 09:34N 49°17' W 000°15'0 0.0
2017-Feb-17 08:34N 49°17' W 000°15'0 0.0
2017-Feb-17 07:34N 49°17' W 000°15'0 0.0
2017-Feb-17 06:34N 49°17' W 000°15'10 9.5
2017-Feb-17 05:33N 49°27' W 000°17'1413.5
2017-Feb-17 04:33N 49°39' W 000°25'1211.7
2017-Feb-17 03:33N 49°50' W 000°30'1312.5
2017-Feb-17 02:33N 50°02' W 000°37'1615.8
2017-Feb-17 01:33N 50°17' W 000°45'1615.5
2017-Feb-17 00:33N 50°32' W 000°54'1414.2
2017-Feb-16 23:34N 50°44' W 001°04'5 4.6
2017-Feb-16 22:33N 50°49' W 001°06'0 0.0
2017-Feb-16 21:34N 50°49' W 001°06'3 3.0
2017-Feb-16 20:34N 50°46' W 001°05'1818.4
2017-Feb-16 19:34N 50°30' W 000°51'2120.5
2017-Feb-16 18:33N 50°10' W 000°40'1919.1
2017-Feb-16 17:34N 49°52' W 000°31'1919.4
2017-Feb-16 16:33N 49°34' W 000°21'1717.1
2017-Feb-16 15:33N 49°17' W 000°15'0 0.0
2017-Feb-16 14:33N 49°17' W 000°15'2 1.8
2017-Feb-16 13:33N 49°19' W 000°15'2020.2
2017-Feb-16 12:33N 49°39' W 000°23'2120.9
2017-Feb-16 11:33N 49°59' W 000°33'2220.7
2017-Feb-16 10:30N 50°19' W 000°46'1919.6
2017-Feb-16 09:33N 50°36' W 000°56'1413.9
2017-Feb-16 08:33N 50°48' W 001°07'1 0.8
2017-Feb-16 07:33N 50°49' W 001°06'0 0.3
2017-Feb-16 06:33N 50°49' W 001°06'1313.1
2017-Feb-16 05:33N 50°37' W 000°58'1311.6
2017-Feb-16 04:26N 50°24' W 000°53'1011.6
2017-Feb-16 03:33N 50°14' W 000°47'1111.5
2017-Feb-16 02:33N 50°04' W 000°40'1211.7
2017-Feb-16 01:34N 49°53' W 000°33'1211.6
2017-Feb-16 00:34N 49°42' W 000°29'1110.6
2017-Feb-15 23:34N 49°32' W 000°23'1110.7
2017-Feb-15 22:33N 49°22' W 000°16'5 5.1
2017-Feb-15 21:33N 49°17' W 000°15'0 0.0
2017-Feb-15 20:33N 49°17' W 000°15'1111.0
2017-Feb-15 19:33N 49°28' W 000°17'2019.8
2017-Feb-15 18:33N 49°47' W 000°27'1918.5
2017-Feb-15 17:33N 50°04' W 000°37'1918.7
2017-Feb-15 16:33N 50°22' W 000°48'1818.6
2017-Feb-15 15:34N 50°39' W 000°58'1110.9
2017-Feb-15 14:33N 50°49' W 001°06'0 0.0
2017-Feb-15 13:34N 50°49' W 001°06'2 2.2
2017-Feb-15 12:33N 50°47' W 001°06'2019.5
2017-Feb-15 11:33N 50°29' W 000°53'2020.3
2017-Feb-15 10:33N 50°10' W 000°41'2020.0
2017-Feb-15 09:33N 49°51' W 000°33'2019.8
2017-Feb-15 08:33N 49°32' W 000°22'1515.5
2017-Feb-15 07:34N 49°17' W 000°15'0 0.0
2017-Feb-15 06:34N 49°17' W 000°15'0 0.1
2017-Feb-15 05:33N 49°17' W 000°15'1414.0
2017-Feb-15 04:34N 49°31' W 000°20'1514.6
2017-Feb-15 03:34N 49°45' W 000°27'1514.6
2017-Feb-15 02:33N 49°59' W 000°34'3115.4
2017-Feb-15 00:34N 50°27' W 000°51'1515.5
2017-Feb-14 23:34N 50°42' W 001°01'8 7.7
2017-Feb-14 22:33N 50°49' W 001°06'0 0.0
2017-Feb-14 21:33N 50°49' W 001°06'3 2.6
2017-Feb-14 20:33N 50°46' W 001°05'1716.8
2017-Feb-14 19:33N 50°31' W 000°54'1919.1
2017-Feb-14 18:34N 50°13' W 000°44'2019.7
2017-Feb-14 17:34N 49°55' W 000°33'2020.0
2017-Feb-14 16:33N 49°36' W 000°22'1918.9
2017-Feb-14 15:34N 49°18' W 000°15'0 0.3
2017-Feb-14 14:33N 49°17' W 000°15'0 0.1
2017-Feb-14 13:34N 49°17' W 000°15'1918.6
2017-Feb-14 12:33N 49°35' W 000°21'1919.1
2017-Feb-14 11:34N 49°54' W 000°30'2120.4
2017-Feb-14 10:32N 50°13' W 000°43'2020.5
2017-Feb-14 09:33N 50°31' W 000°55'1817.6
2017-Feb-14 08:33N 50°47' W 001°07'1 1.5
2017-Feb-14 07:33N 50°49' W 001°06'0 0.4
2017-Feb-14 06:33N 50°49' W 001°06'1313.2
2017-Feb-14 05:33N 50°37' W 000°58'1111.1
2017-Feb-14 04:33N 50°26' W 000°53'1111.3
2017-Feb-14 03:33N 50°15' W 000°47'1211.7
2017-Feb-14 02:33N 50°05' W 000°39'1211.8
2017-Feb-14 01:33N 49°54' W 000°33'1211.8
2017-Feb-14 00:33N 49°43' W 000°26'1211.6
2017-Feb-13 23:33N 49°32' W 000°20'1211.7
2017-Feb-13 22:33N 49°21' W 000°14'3 3.3
2017-Feb-13 21:34N 49°17' W 000°15'0 0.0
2017-Feb-13 20:33N 49°17' W 000°15'1110.9
2017-Feb-13 19:33N 49°28' W 000°17'1817.7
2017-Feb-13 18:33N 49°44' W 000°28'1818.4
2017-Feb-13 17:33N 50°02' W 000°37'2019.1
2017-Feb-13 16:31N 50°21' W 000°46'1919.4
2017-Feb-13 15:34N 50°38' W 000°55'1212.4
2017-Feb-13 14:34N 50°49' W 001°06'0 0.0
2017-Feb-13 13:33N 50°49' W 001°06'4 3.7
2017-Feb-13 12:33N 50°45' W 001°05'1919.3
2017-Feb-13 11:33N 50°29' W 000°49'2019.8
2017-Feb-13 10:34N 50°10' W 000°39'2019.8
2017-Feb-13 09:33N 49°51' W 000°33'1919.4
2017-Feb-13 08:34N 49°33' W 000°22'1615.9
2017-Feb-13 07:33N 49°17' W 000°15'0 0.0
2017-Feb-13 06:34N 49°17' W 000°15'0 0.0
2017-Feb-13 05:33N 49°17' W 000°15'5 5.2
2017-Feb-13 04:33N 49°23' W 000°16'1918.6
2017-Feb-13 03:33N 49°39' W 000°29'1717.4
2017-Feb-13 02:33N 49°55' W 000°40'1716.6
2017-Feb-13 01:33N 50°10' W 000°49'1817.6
2017-Feb-13 00:33N 50°28' W 000°55'1717.1
2017-Feb-12 23:34N 50°44' W 001°03'5 5.1
2017-Feb-12 22:34N 50°49' W 001°06'0 0.0
2017-Feb-12 21:33N 50°49' W 001°06'6 5.8
2017-Feb-12 20:34N 50°43' W 001°02'1817.6
2017-Feb-12 19:33N 50°27' W 000°52'1818.3
2017-Feb-12 18:33N 50°09' W 000°44'1918.5
2017-Feb-12 17:33N 49°52' W 000°35'1818.3
2017-Feb-12 16:33N 49°35' W 000°25'1817.7
2017-Feb-12 15:33N 49°18' W 000°15'1 1.0
2017-Feb-12 14:33N 49°17' W 000°15'2 2.0
2017-Feb-12 13:33N 49°19' W 000°15'1818.2
2017-Feb-12 12:33N 49°37' W 000°21'1918.9
2017-Feb-12 11:33N 49°55' W 000°30'1919.2
2017-Feb-12 10:33N 50°13' W 000°41'1919.1
2017-Feb-12 09:33N 50°31' W 000°53'1817.6
2017-Feb-12 08:34N 50°46' W 001°05'2 2.4
2017-Feb-12 07:33N 50°49' W 001°06'0 0.2
2017-Feb-12 06:33N 50°49' W 001°06'1212.3
2017-Feb-12 05:34N 50°37' W 000°58'1111.1
2017-Feb-12 04:33N 50°27' W 000°51'10 9.9
2017-Feb-12 03:33N 50°18' W 000°46'1010.2
2017-Feb-12 02:33N 50°08' W 000°41'1111.3
2017-Feb-12 01:33N 49°57' W 000°37'1212.3
2017-Feb-12 00:33N 49°46' W 000°29'1212.2
2017-Feb-11 23:33N 49°35' W 000°22'1211.8
2017-Feb-11 22:33N 49°24' W 000°15'6 6.5
2017-Feb-11 21:33N 49°17' W 000°15'0 0.0
2017-Feb-11 20:33N 49°17' W 000°15'1212.2
2017-Feb-11 19:34N 49°29' W 000°18'2019.9
2017-Feb-11 18:34N 49°48' W 000°29'2019.5
2017-Feb-11 17:33N 50°06' W 000°40'1817.6
2017-Feb-11 16:33N 50°22' W 000°51'1717.2
2017-Feb-11 15:34N 50°39' W 000°59'1111.0
2017-Feb-11 14:34N 50°49' W 001°06'0 0.0
2017-Feb-11 13:33N 50°49' W 001°06'5 5.1
2017-Feb-11 12:34N 50°44' W 001°03'1818.3
2017-Feb-11 11:33N 50°28' W 000°49'1818.4
2017-Feb-11 10:33N 50°10' W 000°41'1919.2
2017-Feb-11 09:34N 49°52' W 000°32'2019.6
2017-Feb-11 08:34N 49°34' W 000°22'1716.8
2017-Feb-11 07:34N 49°17' W 000°15'0 0.0
2017-Feb-11 06:33N 49°17' W 000°15'0 0.1
2017-Feb-11 05:34N 49°17' W 000°15'1615.7
2017-Feb-11 04:33N 49°32' W 000°21'1616.0
2017-Feb-11 03:33N 49°47' W 000°30'1615.6
2017-Feb-11 02:33N 50°02' W 000°39'2512.1
2017-Feb-11 00:31N 50°25' W 000°52'1110.9
2017-Feb-10 23:33N 50°35' W 000°57'1110.7
2017-Feb-10 22:33N 50°45' W 001°05'4 4.2
2017-Feb-10 21:33N 50°49' W 001°06'0 0.0
2017-Feb-10 20:34N 50°49' W 001°06'0 0.0
2017-Feb-10 19:34N 50°49' W 001°06'6 6.4
2017-Feb-10 18:33N 50°43' W 001°01'1918.5
2017-Feb-10 17:33N 50°26' W 000°51'1818.6
2017-Feb-10 16:33N 50°08' W 000°41'1616.4
2017-Feb-10 15:33N 49°53' W 000°32'1616.4
2017-Feb-10 14:33N 49°37' W 000°25'1413.7
2017-Feb-10 13:34N 49°25' W 000°17'7 7.4
2017-Feb-10 12:33N 49°17' W 000°15'0 0.0
2017-Feb-10 11:33N 49°17' W 000°15'0 0.0
2017-Feb-10 10:33N 49°17' W 000°15'0 0.0
2017-Feb-10 09:33N 49°17' W 000°15'0 0.0
2017-Feb-10 08:33N 49°17' W 000°15'0 0.0
2017-Feb-10 07:33N 49°17' W 000°15'0 0.0
2017-Feb-10 06:33N 49°17' W 000°15'1010.4
2017-Feb-10 05:34N 49°28' W 000°17'1313.3
2017-Feb-10 04:33N 49°40' W 000°24'1313.2
2017-Feb-10 03:33N 49°53' W 000°30'1414.1
2017-Feb-10 02:34N 50°06' W 000°38'1914.3
2017-Feb-10 01:13N 50°24' W 000°50'1014.6
2017-Feb-10 00:33N 50°33' W 000°55'1514.6
2017-Feb-09 23:34N 50°46' W 001°05'3 3.1
2017-Feb-09 22:33N 50°49' W 001°06'0 0.0
2017-Feb-09 21:33N 50°49' W 001°06'7 6.8
2017-Feb-09 20:34N 50°43' W 001°01'1616.4
2017-Feb-09 19:33N 50°28' W 000°51'1919.5
2017-Feb-09 18:33N 50°09' W 000°41'2019.6
2017-Feb-09 17:33N 49°51' W 000°31'2019.5
2017-Feb-09 16:33N 49°32' W 000°21'1515.3
2017-Feb-09 15:33N 49°17' W 000°15'0 0.0
2017-Feb-09 14:33N 49°17' W 000°15'2 1.6
2017-Feb-09 13:33N 49°19' W 000°15'  
Track history (hours):
 
Tides and Currents Weather Stations Pressure Air Temp Water Temp Dewpoint Dewpoint Depression Visibility Wind Speed Wind Dir Waves Ship Positions

Mont Saint Michel

Last reported at 2017-Feb-19 13:33 UTC. Time now 2017-Feb-19 14:26 UTC.
Position N 49°20' W 000°14'.

Length 173 m; beam 29 m.

Type: Ship. MMSI: 227023100.

Date/timePositionNaut miles runAvg speedWind from/ knotsBaromVisibWave heightAir tempDewpointWater temp
2017-Feb-19 13:33N 49°20' W 000°14'2120.7
2017-Feb-19 12:33N 49°40' W 000°24'2121.1
2017-Feb-19 11:33N 49°60' W 000°33'2221.0
2017-Feb-19 10:30N 50°22' W 000°43'1920.3
2017-Feb-19 09:33N 50°39' W 000°55'1212.1
2017-Feb-19 08:33N 50°49' W 001°06'0 0.0
2017-Feb-19 07:33N 50°49' W 001°06'1 0.6
2017-Feb-19 06:34N 50°48' W 001°07'1313.2
2017-Feb-19 05:33N 50°37' W 000°57'1312.5
2017-Feb-19 04:33N 50°25' W 000°48'1211.7
2017-Feb-19 03:33N 50°14' W 000°43'1211.7
2017-Feb-19 02:34N 50°03' W 000°38'1111.3
2017-Feb-19 01:33N 49°52' W 000°33'1111.3
2017-Feb-19 00:34N 49°42' W 000°27'1111.4
2017-Feb-18 23:33N 49°31' W 000°21'1111.3
2017-Feb-18 22:34N 49°20' W 000°15'3 3.1
2017-Feb-18 21:33N 49°17' W 000°15'0 0.0
2017-Feb-18 20:33N 49°17' W 000°15'1111.5
2017-Feb-18 19:34N 49°29' W 000°19'2019.6
2017-Feb-18 18:33N 49°46' W 000°32'1818.5
2017-Feb-18 17:33N 50°03' W 000°44'1818.1
2017-Feb-18 16:33N 50°21' W 000°49'1818.5
2017-Feb-18 15:34N 50°38' W 000°58'1111.4
2017-Feb-18 14:33N 50°49' W 001°06'0 0.0
2017-Feb-18 13:33N 50°49' W 001°06'4 3.6
2017-Feb-18 12:34N 50°45' W 001°05'1918.6
2017-Feb-18 11:33N 50°29' W 000°51'2120.6
2017-Feb-18 10:33N 50°09' W 000°40'2121.0
2017-Feb-18 09:33N 49°50' W 000°29'2020.4
2017-Feb-18 08:33N 49°30' W 000°21'1313.3
2017-Feb-18 07:33N 49°17' W 000°15'0 0.0
2017-Feb-18 06:33N 49°17' W 000°15'0 0.0
2017-Feb-18 05:33N 49°17' W 000°15'1313.3
2017-Feb-18 04:33N 49°30' W 000°20'1313.5
2017-Feb-18 03:34N 49°43' W 000°28'1111.3
2017-Feb-18 02:34N 49°53' W 000°35'1413.6
2017-Feb-18 01:33N 50°06' W 000°43'1515.4
2017-Feb-18 00:33N 50°20' W 000°50'1515.4
2017-Feb-17 23:33N 50°35' W 000°59'1212.3
2017-Feb-17 22:33N 50°46' W 001°05'3 2.6
2017-Feb-17 21:33N 50°49' W 001°06'0 0.0
2017-Feb-17 20:33N 50°49' W 001°06'0 0.0
2017-Feb-17 19:33N 50°49' W 001°06'2 2.1
2017-Feb-17 18:33N 50°47' W 001°06'1717.3
2017-Feb-17 17:33N 50°31' W 000°54'1817.6
2017-Feb-17 16:33N 50°15' W 000°44'1817.8
2017-Feb-17 15:33N 49°58' W 000°35'1717.4
2017-Feb-17 14:33N 49°41' W 000°27'1716.8
2017-Feb-17 13:34N 49°25' W 000°18'8 8.3
2017-Feb-17 12:34N 49°17' W 000°15'0 0.0
2017-Feb-17 11:33N 49°17' W 000°15'0 0.0
2017-Feb-17 10:33N 49°17' W 000°15'0 0.0
2017-Feb-17 09:34N 49°17' W 000°15'0 0.0
2017-Feb-17 08:34N 49°17' W 000°15'0 0.0
2017-Feb-17 07:34N 49°17' W 000°15'0 0.0
2017-Feb-17 06:34N 49°17' W 000°15'10 9.5
2017-Feb-17 05:33N 49°27' W 000°17'1413.5
2017-Feb-17 04:33N 49°39' W 000°25'1211.7
2017-Feb-17 03:33N 49°50' W 000°30'1312.5
2017-Feb-17 02:33N 50°02' W 000°37'1615.8
2017-Feb-17 01:33N 50°17' W 000°45'1615.5
2017-Feb-17 00:33N 50°32' W 000°54'1414.2
2017-Feb-16 23:34N 50°44' W 001°04'5 4.6
2017-Feb-16 22:33N 50°49' W 001°06'0 0.0
2017-Feb-16 21:34N 50°49' W 001°06'3 3.0
2017-Feb-16 20:34N 50°46' W 001°05'1818.4
2017-Feb-16 19:34N 50°30' W 000°51'2120.5
2017-Feb-16 18:33N 50°10' W 000°40'1919.1
2017-Feb-16 17:34N 49°52' W 000°31'1919.4
2017-Feb-16 16:33N 49°34' W 000°21'1717.1
2017-Feb-16 15:33N 49°17' W 000°15'0 0.0
2017-Feb-16 14:33N 49°17' W 000°15'2 1.8
2017-Feb-16 13:33N 49°19' W 000°15'2020.2
2017-Feb-16 12:33N 49°39' W 000°23'2120.9
2017-Feb-16 11:33N 49°59' W 000°33'2220.7
2017-Feb-16 10:30N 50°19' W 000°46'1919.6
2017-Feb-16 09:33N 50°36' W 000°56'1413.9
2017-Feb-16 08:33N 50°48' W 001°07'1 0.8
2017-Feb-16 07:33N 50°49' W 001°06'0 0.3
2017-Feb-16 06:33N 50°49' W 001°06'1313.1
2017-Feb-16 05:33N 50°37' W 000°58'1311.6
2017-Feb-16 04:26N 50°24' W 000°53'1011.6
2017-Feb-16 03:33N 50°14' W 000°47'1111.5
2017-Feb-16 02:33N 50°04' W 000°40'1211.7
2017-Feb-16 01:34N 49°53' W 000°33'1211.6
2017-Feb-16 00:34N 49°42' W 000°29'1110.6
2017-Feb-15 23:34N 49°32' W 000°23'1110.7
2017-Feb-15 22:33N 49°22' W 000°16'5 5.1
2017-Feb-15 21:33N 49°17' W 000°15'0 0.0
2017-Feb-15 20:33N 49°17' W 000°15'1111.0
2017-Feb-15 19:33N 49°28' W 000°17'2019.8
2017-Feb-15 18:33N 49°47' W 000°27'1918.5
2017-Feb-15 17:33N 50°04' W 000°37'1918.7
2017-Feb-15 16:33N 50°22' W 000°48'1818.6
2017-Feb-15 15:34N 50°39' W 000°58'1110.9
2017-Feb-15 14:33N 50°49' W 001°06'0 0.0
2017-Feb-15 13:34N 50°49' W 001°06'2 2.2
2017-Feb-15 12:33N 50°47' W 001°06'2019.5
2017-Feb-15 11:33N 50°29' W 000°53'2020.3
2017-Feb-15 10:33N 50°10' W 000°41'2020.0
2017-Feb-15 09:33N 49°51' W 000°33'2019.8
2017-Feb-15 08:33N 49°32' W 000°22'1515.5
2017-Feb-15 07:34N 49°17' W 000°15'0 0.0
2017-Feb-15 06:34N 49°17' W 000°15'0 0.1
2017-Feb-15 05:33N 49°17' W 000°15'1414.0
2017-Feb-15 04:34N 49°31' W 000°20'1514.6
2017-Feb-15 03:34N 49°45' W 000°27'1514.6
2017-Feb-15 02:33N 49°59' W 000°34'3115.4
2017-Feb-15 00:34N 50°27' W 000°51'1515.5
2017-Feb-14 23:34N 50°42' W 001°01'8 7.7
2017-Feb-14 22:33N 50°49' W 001°06'0 0.0
2017-Feb-14 21:33N 50°49' W 001°06'3 2.6
2017-Feb-14 20:33N 50°46' W 001°05'1716.8
2017-Feb-14 19:33N 50°31' W 000°54'1919.1
2017-Feb-14 18:34N 50°13' W 000°44'2019.7
2017-Feb-14 17:34N 49°55' W 000°33'2020.0
2017-Feb-14 16:33N 49°36' W 000°22'1918.9
2017-Feb-14 15:34N 49°18' W 000°15'0 0.3
2017-Feb-14 14:33N 49°17' W 000°15'0 0.1
2017-Feb-14 13:34N 49°17' W 000°15'1918.6
2017-Feb-14 12:33N 49°35' W 000°21'1919.1
2017-Feb-14 11:34N 49°54' W 000°30'2120.4
2017-Feb-14 10:32N 50°13' W 000°43'2020.5
2017-Feb-14 09:33N 50°31' W 000°55'1817.6
2017-Feb-14 08:33N 50°47' W 001°07'1 1.5
2017-Feb-14 07:33N 50°49' W 001°06'0 0.4
2017-Feb-14 06:33N 50°49' W 001°06'1313.2
2017-Feb-14 05:33N 50°37' W 000°58'1111.1
2017-Feb-14 04:33N 50°26' W 000°53'1111.3
2017-Feb-14 03:33N 50°15' W 000°47'1211.7
2017-Feb-14 02:33N 50°05' W 000°39'1211.8
2017-Feb-14 01:33N 49°54' W 000°33'1211.8
2017-Feb-14 00:33N 49°43' W 000°26'1211.6
2017-Feb-13 23:33N 49°32' W 000°20'1211.7
2017-Feb-13 22:33N 49°21' W 000°14'3 3.3
2017-Feb-13 21:34N 49°17' W 000°15'0 0.0
2017-Feb-13 20:33N 49°17' W 000°15'1110.9
2017-Feb-13 19:33N 49°28' W 000°17'1817.7
2017-Feb-13 18:33N 49°44' W 000°28'1818.4
2017-Feb-13 17:33N 50°02' W 000°37'2019.1
2017-Feb-13 16:31N 50°21' W 000°46'1919.4
2017-Feb-13 15:34N 50°38' W 000°55'1212.4
2017-Feb-13 14:34N 50°49' W 001°06'0 0.0
2017-Feb-13 13:33N 50°49' W 001°06'4 3.7
2017-Feb-13 12:33N 50°45' W 001°05'1919.3
2017-Feb-13 11:33N 50°29' W 000°49'2019.8
2017-Feb-13 10:34N 50°10' W 000°39'2019.8
2017-Feb-13 09:33N 49°51' W 000°33'1919.4
2017-Feb-13 08:34N 49°33' W 000°22'1615.9
2017-Feb-13 07:33N 49°17' W 000°15'0 0.0
2017-Feb-13 06:34N 49°17' W 000°15'0 0.0
2017-Feb-13 05:33N 49°17' W 000°15'5 5.2
2017-Feb-13 04:33N 49°23' W 000°16'1918.6
2017-Feb-13 03:33N 49°39' W 000°29'1717.4
2017-Feb-13 02:33N 49°55' W 000°40'1716.6
2017-Feb-13 01:33N 50°10' W 000°49'1817.6
2017-Feb-13 00:33N 50°28' W 000°55'1717.1
2017-Feb-12 23:34N 50°44' W 001°03'5 5.1
2017-Feb-12 22:34N 50°49' W 001°06'0 0.0
2017-Feb-12 21:33N 50°49' W 001°06'6 5.8
2017-Feb-12 20:34N 50°43' W 001°02'1817.6
2017-Feb-12 19:33N 50°27' W 000°52'1818.3
2017-Feb-12 18:33N 50°09' W 000°44'1918.5
2017-Feb-12 17:33N 49°52' W 000°35'1818.3
2017-Feb-12 16:33N 49°35' W 000°25'1817.7
2017-Feb-12 15:33N 49°18' W 000°15'1 1.0
2017-Feb-12 14:33N 49°17' W 000°15'2 2.0
2017-Feb-12 13:33N 49°19' W 000°15'1818.2
2017-Feb-12 12:33N 49°37' W 000°21'1918.9
2017-Feb-12 11:33N 49°55' W 000°30'1919.2
2017-Feb-12 10:33N 50°13' W 000°41'1919.1
2017-Feb-12 09:33N 50°31' W 000°53'1817.6
2017-Feb-12 08:34N 50°46' W 001°05'2 2.4
2017-Feb-12 07:33N 50°49' W 001°06'0 0.2
2017-Feb-12 06:33N 50°49' W 001°06'1212.3
2017-Feb-12 05:34N 50°37' W 000°58'1111.1
2017-Feb-12 04:33N 50°27' W 000°51'10 9.9
2017-Feb-12 03:33N 50°18' W 000°46'1010.2
2017-Feb-12 02:33N 50°08' W 000°41'1111.3
2017-Feb-12 01:33N 49°57' W 000°37'1212.3
2017-Feb-12 00:33N 49°46' W 000°29'1212.2
2017-Feb-11 23:33N 49°35' W 000°22'1211.8
2017-Feb-11 22:33N 49°24' W 000°15'6 6.5
2017-Feb-11 21:33N 49°17' W 000°15'0 0.0
2017-Feb-11 20:33N 49°17' W 000°15'1212.2
2017-Feb-11 19:34N 49°29' W 000°18'2019.9
2017-Feb-11 18:34N 49°48' W 000°29'2019.5
2017-Feb-11 17:33N 50°06' W 000°40'1817.6
2017-Feb-11 16:33N 50°22' W 000°51'1717.2
2017-Feb-11 15:34N 50°39' W 000°59'1111.0
2017-Feb-11 14:34N 50°49' W 001°06'0 0.0
2017-Feb-11 13:33N 50°49' W 001°06'5 5.1
2017-Feb-11 12:34N 50°44' W 001°03'1818.3
2017-Feb-11 11:33N 50°28' W 000°49'1818.4
2017-Feb-11 10:33N 50°10' W 000°41'1919.2
2017-Feb-11 09:34N 49°52' W 000°32'2019.6
2017-Feb-11 08:34N 49°34' W 000°22'1716.8
2017-Feb-11 07:34N 49°17' W 000°15'0 0.0
2017-Feb-11 06:33N 49°17' W 000°15'0 0.1
2017-Feb-11 05:34N 49°17' W 000°15'1615.7
2017-Feb-11 04:33N 49°32' W 000°21'1616.0
2017-Feb-11 03:33N 49°47' W 000°30'1615.6
2017-Feb-11 02:33N 50°02' W 000°39'2512.1
2017-Feb-11 00:31N 50°25' W 000°52'1110.9
2017-Feb-10 23:33N 50°35' W 000°57'1110.7
2017-Feb-10 22:33N 50°45' W 001°05'4 4.2
2017-Feb-10 21:33N 50°49' W 001°06'0 0.0
2017-Feb-10 20:34N 50°49' W 001°06'0 0.0
2017-Feb-10 19:34N 50°49' W 001°06'6 6.4
2017-Feb-10 18:33N 50°43' W 001°01'1918.5
2017-Feb-10 17:33N 50°26' W 000°51'1818.6
2017-Feb-10 16:33N 50°08' W 000°41'1616.4
2017-Feb-10 15:33N 49°53' W 000°32'1616.4
2017-Feb-10 14:33N 49°37' W 000°25'1413.7
2017-Feb-10 13:34N 49°25' W 000°17'7 7.4
2017-Feb-10 12:33N 49°17' W 000°15'0 0.0
2017-Feb-10 11:33N 49°17' W 000°15'0 0.0
2017-Feb-10 10:33N 49°17' W 000°15'0 0.0
2017-Feb-10 09:33N 49°17' W 000°15'0 0.0
2017-Feb-10 08:33N 49°17' W 000°15'0 0.0
2017-Feb-10 07:33N 49°17' W 000°15'0 0.0
2017-Feb-10 06:33N 49°17' W 000°15'1010.4
2017-Feb-10 05:34N 49°28' W 000°17'1313.3
2017-Feb-10 04:33N 49°40' W 000°24'1313.2
2017-Feb-10 03:33N 49°53' W 000°30'1414.1
2017-Feb-10 02:34N 50°06' W 000°38'1914.3
2017-Feb-10 01:13N 50°24' W 000°50'1014.6
2017-Feb-10 00:33N 50°33' W 000°55'1514.6
2017-Feb-09 23:34N 50°46' W 001°05'3 3.1
2017-Feb-09 22:33N 50°49' W 001°06'0 0.0
2017-Feb-09 21:33N 50°49' W 001°06'7 6.8
2017-Feb-09 20:34N 50°43' W 001°01'1616.4
2017-Feb-09 19:33N 50°28' W 000°51'1919.5
2017-Feb-09 18:33N 50°09' W 000°41'2019.6
2017-Feb-09 17:33N 49°51' W 000°31'2019.5
2017-Feb-09 16:33N 49°32' W 000°21'1515.3
2017-Feb-09 15:33N 49°17' W 000°15'0 0.0
2017-Feb-09 14:33N 49°17' W 000°15'2 1.6
2017-Feb-09 13:33N 49°19' W 000°15'  

Dump ship's entire track history